Regional Weather Roundup
Issued by NWS Bismarck, ND

Home | Current Version | Previous Version | Text Only | Print | Product List | Glossary On
Versions: 1 2 3 4 5 6 7 8 9 10 11 12 13 14 15 16 17 18 19 20 21 22 23 24 25 26 27 28 29 30 31 32 33 34 35 36 37 38 39 40 41 42 43 44 45 46 47 48 49 50
749
ASUS43 KBIS 282302
RWRBIS

NWR BROADCAST TEXT
NATIONAL WEATHER SERVICE BISMARCK ND
600 PM CDT THU APR 28 2016

NOTE: "FAIR" INDICATES FEW OR NO CLOUDS BELOW 12,000 FEET WITH NO
SIGNIFICANT WEATHER AND/OR OBSTRUCTIONS TO VISIBILITY.


CITY           SKY/WX    TMP DP  RH WIND       PRES   REMARKS
WILLISTON      CLOUDY    58  21  24 E10       30.13S
MINOT          MOSUNNY   59  11  15 NE12      30.14R
MINOT AFB      MOSUNNY   56  14  19 E17       30.13R
BISMARCK       CLOUDY    54  21  27 NE10      30.09S
DICKINSON      CLOUDY    50  25  37 E9        30.08R
GARRISON         N/A     55  18  23 E12       30.11S
HETTINGER ARPT CLOUDY    46  33  60 NE7       30.11R
JAMESTOWN      CLOUDY    54  22  28 E14       30.09R
CARRINGTON     MOCLDY    55  23  28 NE15G22   30.13S
HAZEN          CLOUDY    54  19  26 E8        30.13R
OAKES            N/A    N/A N/A N/A MISG        N/A
STANLEY        FAIR      54  10  17 E14       30.16S
$$

CITY           SKY/WX    TMP DP  RH WIND       PRES   REMARKS
GRAND FORKS    PTSUNNY   56  25  30 NE17      30.12R
GRAND FORKS AF MOSUNNY   56  21  26 NE14      30.13R
DEVILS LAKE    PTSUNNY   53  19  26 E13       30.14S
FARGO          CLOUDY    60  22  23 NE8       30.06R
CAVALIER       FAIR      57  25  28 N5        30.14S
GRAFTON        FAIR      57  27  30 E9        30.15S
GWINNER        FAIR      54  32  43 E8        30.07R
LANGDON        FAIR      57  21  24 E17       30.14F
$$

CITY           SKY/WX    TMP DP  RH WIND       PRES   REMARKS
ABERDEEN       CLOUDY    52  33  48 NE14      30.06S
MOBRIDGE       CLOUDY    53  35  50 SE9       30.04R
BUFFALO          N/A     39  35  86 NE8       30.04R
RAPID CITY     CLOUDY    39  34  82 NE9       30.08R
GLASGOW        PTSUNNY   54  27  35 SE16      30.12R
SIDNEY         CLOUDY    54  28  37 E12       30.13S
WOLF POINT     CLOUDY    56  27  32 E14       30.12S
GLENDIVE       CLOUDY    48  28  46 E9        30.13S
MILES CITY     LGT RAIN  44  35  70 E10       30.10S
BAKER          CLOUDY    42  33  70 SE15      30.12S
$$

CITY           SKY/WX    TMP DP  RH WIND       PRES   REMARKS
BILLINGS       PTSUNNY   40  33  76 NE6       30.08S
GREAT FALLS    CLOUDY    42  34  73 E14       30.08R
$$





USA.gov is the U.S. government's official web portal to all federal, state and local government web resources and services.